Regional Weather Roundup
Issued by NWS

Home | Current Version | Previous Version | Text Only | Print | Product List | Glossary Off
Versions: 1 2 3 4 5 6 7 8 9 10 11 12 13 14 15 16 17 18 19 20 21 22 23 24 25 26 27 28 29 30 31 32 33 34 35 36 37 38 39 40 41 42 43 44 45 46 47 48 49 50

441
ASUS43 KLOT 240112
RWRIL

ILLINOIS REGIONAL WEATHER ROUNDUP
NATIONAL WEATHER SERVICE CHICAGO/ROMEOVILLE IL
700 PM CST MON JAN 23 2017

NOTE: "FAIR" INDICATES FEW OR NO CLOUDS BELOW 12,000 FEET WITH NO
SIGNIFICANT WEATHER AND/OR OBSTRUCTIONS TO VISIBILITY.

* THESE STATIONS ARE NOT UNDER NWS QUALITY CONTROL. THEY ALSO MAY NOT
  REPORT WEATHER SUCH AS PRECIPITATION OR FOG.

ILZ001-002-007-009-015-016-024-240200-
NORTHWEST ILLINOIS

CITY           SKY/WX    TMP DP  RH WIND       PRES   REMARKS
MOLINE         CLOUDY    38  33  82 W9        29.85R WCI  31
STERLING*      CLOUDY    38  34  85 N3        29.83S
SAVANNA*       CLOUDY    37  34  90 CALM      29.83S
$$

ILZ003-004-008-010-011-017-018-240200-
NORTH CENTRAL ILLINOIS

CITY           SKY/WX    TMP DP  RH WIND       PRES   REMARKS
ROCKFORD       CLOUDY    39  34  82 NW7       29.82R WCI  34
FREEPORT*      CLOUDY    36  34  90 W6        29.83R WCI  32
ROCHELLE*      CLOUDY    37  35  90 NW8       29.81S WCI  31
DE KALB*       CLOUDY    38  37  93 NW6       29.80R WCI  34
PERU*          CLOUDY    37  34  88 NW9       29.82S WCI  30
$$

ILZ005-006-012>014-019>023-240200-
NORTHEAST ILLINOIS

CITY           SKY/WX    TMP DP  RH WIND       PRES   REMARKS
CHICAGO-OHARE  CLOUDY    40  35  83 NW10      29.78R
CHICAGO-MIDWAY CLOUDY    42  34  73 NW9       29.78R
AURORA         CLOUDY    39  36  89 NW3       29.80R
LANSING*       CLOUDY    41  36  84 N5        29.77S
JOLIET*        CLOUDY    42  36  81 NW3       29.81R
WAUKEGAN       CLOUDY    38  35  89 NW6       29.78R WCI  33
DUPAGE AIRPORT CLOUDY    39  33  79 N6        29.79R WCI  35
KANKAKEE*      CLOUDY    40  36  83 CALM      29.80R
WHEELING       PTCLDY    38  33  82 NW7       29.79R WCI  33
MORRIS*        CLOUDY    39  36  91 CALM      29.79R
ROMEOVILLE*    CLOUDY    39  37  91 NW6       29.80R WCI  35
NORTHERLY ISL    N/A     39  35  86 N5          N/A
$$

LMZ740>746-240200-
SOUTHERN LAKE MICHIGAN

STATION/POSITION SKY/WX   TEMP    WIND        PRES    VSBY  WAVE
                          AIR SEA DIR/SP/G                  HT/PER
                          (F)     (DEG/KT/KT) (MB)    (MI)  (FT/S)
HARRISON CRIB              39     350/ 12/ 13   N/A
BURNHAM HARBOR             38     320/  5/ 10   N/A
CALUMET HARBOR             37     340/  6/  8 1007.8R
BURNS HARBOR               36      10/  6/  8 1009.1R
MICHIGAN CITY              36     330/ 10/ 10   N/A
$$

ILZ025>027-034>036-040-047-049-050-058-095>099-240200-
WEST-CENTRAL ILLINOIS

CITY           SKY/WX    TMP DP  RH WIND       PRES   REMARKS
QUINCY         CLOUDY    35  31  85 W7        29.87R WCI  29
GALESBURG*     CLOUDY    35  32  90 W10       29.86R WCI  27
MACOMB*        CLOUDY    37  34  89 W8        29.88R WCI  30
JACKSONVILLE*  CLOUDY    38  33  82 W10       29.86R WCI  31
PITTSFIELD*    CLOUDY    38  33  82 NW7       29.87R WCI  32
$$

ILZ028>032-037-038-041>044-048-051>054-059>061-240200-
CENTRAL ILLINOIS

CITY           SKY/WX    TMP DP  RH WIND       PRES   REMARKS
PONTIAC        CLOUDY    40  40  99 W6        29.82R
BLOOMINGTON    CLOUDY    39  35  86 NW9       29.81S WCI  33
DECATUR        CLOUDY    41  36  82 NW10      29.83R
PEORIA         CLOUDY    40  36  86 NW5       29.83S
LACON*         CLOUDY    38  37  92 NW7       29.83R WCI  33
LINCOLN*       CLOUDY    41  37  83 NW3       29.83S
SPRINGFIELD    CLOUDY    41  34  76 NW7       29.84F
TAYLORVILLE    CLOUDY    39  34  81 NW8       29.83F WCI  34
$$

ILZ033-039-045-046-055>057-062-063-240200-
EAST-CENTRAL ILLINOIS

CITY           SKY/WX    TMP DP  RH WIND       PRES   REMARKS
CHAMPAIGN      CLOUDY    39  34  82 NW13      29.81R WCI  31
RANTOUL*       CLOUDY    41  38  89 NW7       29.81R
MATTOON        CLOUDY    40  35  83 N14       29.81R
PARIS*         CLOUDY    39  36  91 NW14      29.81R WCI  30
$$

ILZ079-100>102-240200-
SOUTHWEST ILLINOIS

CITY           SKY/WX    TMP DP  RH WIND       PRES   REMARKS
ALTON          CLOUDY    39  34  81 NW7       29.85F WCI  34
BELLEVILLE     CLOUDY    41  35  78 NW6       29.84S
CAHOKIA*       CLOUDY    42  33  70 N6        29.85S
SPARTA*        CLOUDY    40  33  77 NW12      29.86S
$$

ILZ064>066-069>071-074>076-080>082-084>086-088>090-092>094-240200-
SOUTH-CENTRAL ILLINOIS

CITY           SKY/WX    TMP DP  RH WIND       PRES   REMARKS
CARBONDALE     CLOUDY    41  36  82 N9        29.86R
CAIRO*         CLOUDY    43  36  75 NW7       29.86R
EFFINGHAM*     CLOUDY    41  37  83 NW13G22   29.84R
MARION         CLOUDY    43  36  75 NW10G16   29.87R
MT. VERNON     CLOUDY    41  35  79 VRB5      29.84S
CENTRALIA*     CLOUDY    42  36  81 NW12      29.84R
SALEM*         CLOUDY    42  35  76 NW12      29.84R
METROPOLIS*    CLOUDY    43  36  76 NW7       29.86S
$$

ILZ067-068-072-073-078-083-087-091-240200-
SOUTHEAST ILLINOIS

CITY           SKY/WX    TMP DP  RH WIND       PRES   REMARKS
LAWRENCEVILLE  CLOUDY    41  37  86 NW15      29.82R
FLORA*         CLOUDY    43  37  78 NW7       29.84R
FAIRFIELD*     CLOUDY    42  36  78 NW3       29.83R
HARRISBURG*    CLOUDY    42  37  80 NW9       29.85R
ROBINSON*      CLOUDY    39  36  87 NW15      29.82R WCI  31
CARMI*         CLOUDY    41  37  83 NW15      29.83R
$$

ABBREVIATIONS USED IN REMARKS
   TC - TEMPERATURE IN CELSIUS
  WCI - WIND CHILL INDEX
   HX - HEAT INDEX
  VSB - VISIBILITY
$$





USA.gov is the U.S. government's official web portal to all federal, state and local government web resources and services.